Home   Weather   Kraków   Past weeks
Flag for Poland

Past Weather in Kraków, Poland — Yesterday and Last 2 Weeks

Now
48 °F

Clear.


Feels Like: 48 °F
Forecast: 70 / 44 °F
Wind: 1 mph from North

Location: Krakow Airport

Current Time: Oct 17, 2019 at 11:24:09 pm

Latest Report: Oct 17, 2019 at 10:30 pm


Visibility: 10 mi

Pressure: 30.04 "Hg

Humidity: 87%

Dew Point: 45 °F

Location of KrakówLocation

Past Weather in Kraków — Graph

°F

Kraków Temperature Yesterday

Maximum temperature yesterday: 68 °F (at 11:00 am)
Minimum temperature yesterday: 45 °F (at 3:00 am)
Average temperature yesterday: 55 °F

High & Low Weather Summary for the Past Weeks

 TemperatureHumidityPressure
High77 °F (Oct 14, 3:30 pm)100% (Oct 7, 2:00 am)30.15 "Hg (Oct 7, 2:00 am)
Low28 °F (Oct 7, 1:30 am)36% (Oct 12, 3:00 pm)29.71 "Hg (Oct 2, 10:00 pm)
Average50 °F80%29.97 "Hg
* Reported Oct 2 10:00 pm — Oct 17 10:00 pm, Kraków. Weather by CustomWeather, © 2019

Note: Actual official high and low records may vary slightly from our data, if they occured in-between our weather recording intervals... More about our weather records

Advertising

Kraków Weather History for the Previous 24 Hours

Scroll right to see more
 ConditionsComfort  
Time TempWeatherWind HumidityBarometerVisibility
10:00 pm
Thu, Oct 17
48 °FClear.1 mph87%30.04 "Hg10 mi
9:30 pm50 °FClear.1 mph82%30.04 "Hg10 mi
9:00 pm50 °FClear.1 mph82%30.04 "Hg10 mi
8:30 pm50 °FClear.2 mph82%30.04 "Hg10 mi
8:00 pm54 °FClear.1 mph72%30.04 "Hg10 mi
7:30 pm54 °FClear.No wind72%30.04 "Hg10 mi
7:00 pm57 °FClear.2 mph63%30.04 "Hg10 mi
6:30 pm61 °FClear.2 mph55%30.04 "Hg10 mi
6:00 pm59 °FClear.3 mph59%30.04 "Hg10 mi
4:30 pm64 °FSunny.5 mph49%30.04 "Hg10 mi
4:00 pm66 °FSunny.5 mph46%30.04 "Hg10 mi
3:30 pm68 °FPassing clouds.3 mph40%30.04 "HgN/A
3:00 pm68 °FSunny.2 mph40%30.04 "Hg10 mi
2:30 pm66 °FSunny.2 mph43%30.07 "Hg10 mi
2:00 pm68 °FSunny.2 mph40%30.07 "Hg10 mi
1:30 pm66 °FSunny.1 mph43%30.07 "Hg10 mi
1:00 pm64 °FSunny.2 mph46%30.07 "Hg10 mi
12:30 pm64 °FSunny.2 mph43%30.09 "Hg10 mi
12:00 pm63 °FSunny.2 mph52%30.09 "Hg10 mi
11:30 am63 °FSunny.2 mph56%30.09 "Hg10 mi
11:00 am59 °FSunny.2 mph59%30.09 "Hg10 mi
10:30 am55 °FSunny.2 mph72%30.09 "Hg10 mi
10:00 am54 °FSunny.1 mph72%30.09 "Hg10 mi
9:30 am52 °FSunny.1 mph82%30.09 "Hg10 mi
9:00 am48 °FSunny.1 mph87%30.09 "Hg10 mi
8:30 am45 °FSunny.2 mph93%30.09 "Hg10 mi
8:00 am43 °FSunny.1 mph93%30.09 "Hg10 mi
7:30 am41 °FSunny.1 mph93%30.07 "Hg10 mi
7:00 am41 °FClear.3 mph100%30.07 "Hg10 mi
6:30 am41 °FPassing clouds.3 mph93%30.07 "HgN/A
6:00 am41 °FClear.1 mph93%30.07 "Hg10 mi
5:30 am41 °FPassing clouds.3 mph100%30.07 "HgN/A
5:00 am39 °FClear.6 mph100%30.07 "Hg10 mi
4:30 am39 °FClear.3 mph93%30.07 "Hg10 mi
4:00 am41 °FFog.2 mph100%30.07 "HgN/A
3:30 am43 °FFog.1 mph93%30.07 "HgN/A
3:00 am43 °FClear.1 mph93%30.07 "Hg10 mi
2:30 am45 °FClear.1 mph93%30.07 "Hg10 mi
2:00 am45 °FClear.2 mph93%30.07 "Hg10 mi
1:30 am43 °FClear.1 mph93%30.07 "Hg10 mi
1:00 am46 °FClear.2 mph93%30.07 "Hg10 mi
12:30 am46 °FClear.1 mph93%30.07 "Hg10 mi
12:00 am48 °FClear.2 mph94%30.04 "Hg10 mi
11:30 pm
Wed, Oct 16
50 °FClear.3 mph88%30.04 "Hg10 mi
11:00 pm52 °FClear.3 mph82%30.04 "Hg10 mi
Weather by CustomWeather, © 2019

See weather overview